Location: �terpigny
(49.8910°N, 2.9249°E)
Time: 09:33:27
(UTC+00:00)

EO-88 - Pass Details

Date: 06 July 2022
Orbit: 453 x 461 km, 97.3° (Epoch: 13 August)

Event Time Altitude Azimuth Distance (km) Brightness Sun altitude
Exits shadow 22:22:50 - 225° (SW) 2,048 ? -14.8°
Reaches altitude 10° 22:24:35 10° 246° (WSW) 1,625 ? -14.9°
Maximum altitude 22:26:03 12° 271° (W) 1,497 ? -15.0°
Drops below altitude 10° 22:27:31 10° 296° (WNW) 1,630 ? -15.0°
Sets 22:30:41 0° 328° (NNW) 2,511 ? -15.2°
